[[[{"header":{"parameterUnit":"kt","parameterCategory":2,"dx":1,"dy":1,"la1":30.253999710083008,"la2":30.299108505249023,"lo1":-89.0895004272461,"lo2":-89.04439544677734,"nx":28,"ny":28,"refTime":"2022-09-27T21:00:00:Z","depth":0,"parameterNumber":1,"parameterNumberName":"U-component_of_WINDS"},"data":[-3.9842,-4.001,-3.9998,-4.0183,-4.0203,-4.0327,-4.0368,-4.0418,-4.0455,-4.0601,-4.0682,-4.0686,-4.0718,-4.0811,-4.0898,-4.0898,-4.0938,-4.1005,-4.0994,-4.0703,-4.0662,-4.0623,-4.0584,-4.1013,-4.1013,-4.1299,-4.1302,-4.1304,-3.9626,-3.9648,-3.9743,-3.9826,-3.9907,-3.9833,-3.9893,-3.9966,-4.0079,-4.0125,-4.0205,-4.0332,-4.0431,-4.044,-4.0533,-4.061,-4.0583,-4.0637,-4.0634,-4.064,-4.0327,-4.0286,-4.0657,-4.0657,-4.0657,-4.0657,-4.0657,-4.0657,-3.9231,-3.9332,-3.9376,-3.9478,-3.9516,-3.9572,-3.9666,-3.9669,-3.9761,-3.9858,-3.9824,-3.9952,-3.9996,-4.0102,-4.0135,-4.0233,-4.0172,-4.0228,-4.0243,-4.0259,-4.0279,-3.9872,-4.0248,-4.0247,-4.0246,-4.0245,-4.0244,0,-3.8939,-3.8922,-3.9012,-3.9099,-3.9173,-3.9239,-3.9297,-3.9354,-3.9314,-3.9392,-3.9504,-3.9566,-3.9688,-3.9792,-3.9876,-3.9899,-3.9835,-3.9825,-3.9864,-3.9886,-3.9893,-3.9895,-3.9389,-3.9816,-3.9812,-3.981,-3.9808,-3.9806,-3.8543,-3.8662,-3.8701,-3.8766,-3.8796,-3.8901,-3.8961,-3.8917,-3.8983,-3.9048,-3.9139,-3.9242,-3.9323,-3.9503,-3.9507,-3.9598,-3.9569,-3.9734,-3.9583,-3.9596,-3.9577,-3.9572,-3.9585,-3.9766,-3.9772,-3.9776,-3.9779,0,-3.8321,-3.8302,-3.8482,-3.851,-3.852,-3.8647,-3.8671,-3.8769,-3.8762,-3.8897,-3.8926,-3.8916,-3.9026,-3.9003,-3.9124,-3.9109,-3.9318,-3.9284,-3.9302,-3.9296,-3.9444,-3.9432,-3.9922,-3.9984,-3.9535,-3.9539,-3.9543,0,-3.7978,-3.8136,-3.8098,-3.8204,-3.8376,-3.8329,-3.8501,-3.8512,-3.8551,-3.8657,-3.8578,-3.8679,-3.8633,-3.8731,-3.8709,-3.8874,-3.8896,-3.8896,-3.889,-3.8907,-3.8908,-3.8946,-3.8928,-3.8865,-3.8862,-3.886,-3.8858,0,-3.7639,-3.7802,-3.7972,-3.8007,-3.8054,-3.8135,-3.8158,-3.8201,-3.8262,-3.8335,-3.8374,-3.8462,-3.8513,-3.8582,-3.8554,-3.8453,-3.8755,-3.861,-3.8755,-3.8757,-3.8829,-3.8826,-3.9259,-3.8855,-3.8854,-3.8853,-3.8853,0,-3.7361,-3.7436,-3.7686,-3.7723,-3.7769,-3.7881,-3.7966,-3.8056,-3.8108,-3.8101,-3.8159,-3.8106,-3.8247,-3.8105,-3.8299,-3.8176,-3.8229,-3.8241,-3.8251,-3.8267,-3.8111,-3.8365,-3.8776,-3.882,-3.8274,-3.827,-3.8265,0,-3.6978,-3.7225,-3.7187,-3.7426,-3.7537,-3.7443,-3.7566,-3.7614,-3.7616,-3.771,-3.7711,-3.782,-3.7709,-3.7741,-3.7839,-3.7846,-3.8006,-3.7823,-3.7963,-3.7969,-3.7957,-3.8334,-3.8404,-3.8687,-3.8203,-3.821,-3.8214,0,-3.6681,-3.6738,-3.6783,-3.6821,-3.6878,-3.6971,-3.7112,-3.7209,-3.7275,-3.7337,-3.7456,-3.7606,-3.7529,-3.7583,-3.755,-3.7654,-3.7896,-3.7558,-3.7559,-3.7623,-3.8169,-3.8235,-3.8282,-3.7851,-3.7858,-3.7864,-3.8165,0,-3.6272,-3.6393,-3.6513,-3.6601,-3.6669,-3.6816,-3.6794,-3.6868,-3.6829,-3.6828,-3.7001,-3.7037,-3.7138,-3.7184,-3.7148,-3.7392,-3.735,-3.7267,-3.7133,-3.7378,-3.7477,-3.7517,-3.6987,-3.6982,-3.6979,-3.6976,0,0,-3.5914,-3.6087,-3.6043,-3.6179,-3.6235,-3.6136,-3.6297,-3.6339,-3.6428,-3.6468,-3.6391,-3.6611,-3.6644,-3.6858,-3.6932,-3.6972,-3.7015,-3.6931,-3.7261,-3.7292,-3.7322,-3.7428,-3.747,-3.697,-3.6969,-3.6968,-3.6966,0,-3.5762,-3.5795,-3.5954,-3.5995,-3.6055,-3.6047,-3.6085,-3.6128,-3.6136,-3.6304,-3.6224,-3.6325,-3.6503,-3.6549,-3.6596,-3.6902,-3.6838,-3.6934,-3.7107,-3.7226,-3.7263,-3.7295,-3.7407,-3.7447,-3.6958,-3.6959,-3.6959,0,-3.5468,-3.5499,-3.5573,-3.5693,-3.5732,-3.5849,-3.5701,-3.5831,-3.5918,-3.5807,-3.5978,-3.5995,-3.6055,-3.6259,-3.6349,-3.6283,-3.6679,-3.655,-3.6571,-3.6583,-3.6697,-3.6741,-3.678,-3.6267,-3.6265,-3.6263,0,0,-3.534,-3.5452,-3.5474,-3.5659,-3.5689,-3.568,-3.574,-3.5709,-3.5764,-3.5787,-3.581,-3.5867,-3.5969,-3.6038,-3.6134,-3.636,-3.637,-3.6466,-3.6498,-3.6525,-3.6551,-3.6672,-3.6716,-3.6254,-3.6254,-3.6254,0,0,-3.528,-3.5312,-3.5263,-3.5475,-3.553,-3.5565,-3.568,-3.5622,-3.5705,-3.5687,-3.5641,-3.5655,-3.5844,-3.5866,-3.5751,-3.6086,-3.5952,-3.598,-3.6067,-3.6107,-3.6139,-3.6133,-3.5607,0,0,0,0,0,-3.5114,-3.5307,-3.5263,-3.5295,-3.5448,-3.5589,-3.5608,-3.5575,-3.5481,-3.5572,-3.5581,-3.5508,-3.5794,-3.5691,-3.5725,-3.5855,-3.6141,-3.6162,-3.618,-3.6345,-3.6388,-3.6425,0,0,0,0,0,0,-3.5127,-3.5167,-3.5257,-3.5301,-3.5335,-3.5582,-3.5415,-3.5411,-3.547,-3.5454,-3.5508,-3.5509,-3.5484,-3.5672,-3.5703,-3.5827,-3.5597,-3.6149,-3.6166,-3.6182,-3.636,-3.6395,-3.6425,0,0,0,0,0,-3.5136,-3.5168,-3.5422,-3.5298,-3.5327,-3.5329,-3.5408,-3.5403,-3.5448,-3.5464,-3.5463,-3.5418,-3.5489,-3.5512,-3.569,-3.5814,-3.5576,-3.5587,-3.616,-3.6174,-3.6186,-3.6377,0,0,0,0,0,0,-3.5144,-3.5166,-3.5427,-3.5435,-3.5223,-3.5314,-3.5327,-3.5397,-3.5454,-3.5455,-3.5371,-3.5357,-3.5494,-3.5511,-3.553,-3.5812,-3.5558,-3.557,-3.5577,-3.6171,-3.6181,-3.619,0,0,0,0,0,0,-3.5148,-3.5173,-3.5431,-3.5339,-3.5336,-3.5301,-3.5313,-3.5459,-3.5456,-3.5357,-3.5347,-3.5364,-3.5467,-3.5512,-3.5526,-3.5756,-3.5545,-3.5556,-3.5564,-3.5569,-3.6179,-3.6187,0,0,0,0,0,0,-3.5158,-3.5179,-3.5337,-3.5334,-3.5331,-3.5416,-3.543,-3.5589,-3.5376,-3.5356,-3.5356,-3.5347,-3.547,-3.5483,-3.5524,-3.5748,-3.5754,-3.5545,-3.5553,-3.5558,-3.5562,0,0,0,0,0,0,0,-3.5166,-3.5031,-3.5381,-3.5331,-3.5327,-3.5507,-3.5509,-3.5511,-3.5374,-3.5366,-3.5358,-3.535,-3.5481,-3.5493,-3.5505,-3.5742,0,0,-3.5544,-3.5549,0,0,0,0,0,0,0,0,-3.5022,-3.5029,-3.5382,-3.5383,-3.5385,-3.5507,-3.5509,-3.5511,-3.5372,-3.5366,-3.536,-3.5353,-3.5484,-3.5494,-3.5504,0,0,0,0,0,0,0,0,0,0,0,0,0,0,0,-3.5382,-3.5383,0,-3.5507,-3.5509,-3.551,-3.5371,-3.5366,-3.5361,-3.5356,-3.5487,-3.5495,-3.5503,0,0,0,0,0,0,0,0,0,0,0,0,0,0,0,0,0,0,0,0,0,0,0,0,0,0,0,0,0,0,0,0,0,0,0,0,0,0,0,0,0,0,0,0,0,0,0,0,0,0,0,0,0,0,0,0,0,0,0,0,0,0,0,0,0,0,0,0,0]}],[{"header":{"parameterUnit":"kt","parameterCategory":2,"dx":1,"dy":1,"la1":30.253999710083008,"la2":30.299108505249023,"lo1":-89.0895004272461,"lo2":-89.04439544677734,"nx":28,"ny":28,"refTime":"2022-09-27T21:00:00:Z","depth":0,"parameterNumber":2,"parameterNumberName":"V-component_of_WINDS"},"data":[-17.1216,-17.1517,-17.1516,-17.1857,-17.1912,-17.2143,-17.2223,-17.2327,-17.2407,-17.2676,-17.283,-17.2853,-17.2927,-17.3105,-17.3266,-17.3271,-17.334,-17.3448,-17.3435,-17.2958,-17.2891,-17.2828,-17.2758,-17.3464,-17.3465,-17.393,-17.3934,-17.3938,-17.0863,-17.0923,-17.1104,-17.1278,-17.1431,-17.1325,-17.1452,-17.1585,-17.1792,-17.1893,-17.2045,-17.2279,-17.2462,-17.2499,-17.2672,-17.2807,-17.2764,-17.2854,-17.2843,-17.2855,-17.2345,-17.2271,-17.2885,-17.2885,-17.2885,-17.2885,-17.2885,-17.2885,-17.022,-17.0402,-17.0506,-17.0702,-17.0788,-17.0903,-17.1073,-17.11,-17.1273,-17.1459,-17.1418,-17.165,-17.1746,-17.1951,-17.2017,-17.2194,-17.2093,-17.2187,-17.2211,-17.2235,-17.2264,-17.159,-17.2223,-17.2221,-17.2219,-17.2218,-17.2217,0,-16.9749,-16.9736,-16.9909,-17.0083,-17.0224,-17.0357,-17.0477,-17.0581,-17.0544,-17.0688,-17.0895,-17.1012,-17.1241,-17.1431,-17.1591,-17.1639,-17.1539,-17.1528,-17.1593,-17.1616,-17.1617,-17.1618,-17.0785,-17.1509,-17.1503,-17.1498,-17.1495,-17.1493,-16.9099,-16.9312,-16.9419,-16.9541,-16.9606,-16.9803,-16.9918,-16.987,-16.9994,-17.0131,-17.029,-17.0481,-17.0632,-17.0958,-17.098,-17.1149,-17.1101,-17.1378,-17.1126,-17.114,-17.1104,-17.1092,-17.1111,-17.1428,-17.1436,-17.1443,-17.1448,0,-16.8733,-16.8728,-16.9055,-16.9139,-16.9166,-16.939,-16.9458,-16.9634,-16.964,-16.9882,-16.9935,-16.9943,-17.0144,-17.0122,-17.0345,-17.0326,-17.0684,-17.0634,-17.0651,-17.0639,-17.0883,-17.0861,-17.1684,-17.1788,-17.1057,-17.1064,-17.107,0,-16.8175,-16.8455,-16.8431,-16.8622,-16.8929,-16.8874,-16.9179,-16.9214,-16.9298,-16.9488,-16.9373,-16.9553,-16.9496,-16.9672,-16.9645,-16.9933,-16.9975,-16.9977,-16.9967,-16.9988,-16.9988,-17.0049,-17.0015,-16.9936,-16.9932,-16.9928,-16.9925,0,-16.7602,-16.7917,-16.8226,-16.8297,-16.8413,-16.8558,-16.8612,-16.8705,-16.8818,-16.8959,-16.9031,-16.9199,-16.9291,-16.942,-16.9385,-16.9214,-16.9737,-16.9495,-16.9739,-16.974,-16.9855,-16.9849,-17.0585,-16.992,-16.9919,-16.9917,-16.9916,0,-16.715,-16.7301,-16.7751,-16.7844,-16.7928,-16.8131,-16.8294,-16.8463,-16.8569,-16.8567,-16.8677,-16.8596,-16.8849,-16.861,-16.8955,-16.8743,-16.8838,-16.8863,-16.888,-16.89,-16.8633,-16.905,-16.9755,-16.9827,-16.8919,-16.8911,-16.8904,0,-16.6494,-16.6947,-16.6904,-16.7332,-16.7537,-16.7394,-16.7617,-16.7716,-16.7731,-16.7904,-16.7917,-16.8114,-16.7932,-16.799,-16.8164,-16.8185,-16.846,-16.8147,-16.8389,-16.8399,-16.8366,-16.9014,-16.9125,-16.9603,-16.8797,-16.8808,-16.8816,0,-16.5985,-16.6127,-16.6207,-16.6284,-16.641,-16.6581,-16.6838,-16.7022,-16.714,-16.7263,-16.7474,-16.775,-16.7623,-16.772,-16.7672,-16.7854,-16.8272,-16.7692,-16.7694,-16.7796,-16.8742,-16.8845,-16.8926,-16.8198,-16.8211,-16.8221,-16.8732,0,-16.5301,-16.5527,-16.5742,-16.5919,-16.6048,-16.6315,-16.6296,-16.6432,-16.6374,-16.6384,-16.6694,-16.6768,-16.6952,-16.7038,-16.6982,-16.7408,-16.7332,-16.7194,-16.6959,-16.7385,-16.7553,-16.7621,-16.6711,-16.6704,-16.6698,-16.6693,0,0,-16.4673,-16.4997,-16.4942,-16.5192,-16.5297,-16.5145,-16.5432,-16.5515,-16.5689,-16.5763,-16.5632,-16.6033,-16.6099,-16.6477,-16.6608,-16.6683,-16.6756,-16.6608,-16.7183,-16.7238,-16.7288,-16.7468,-16.754,-16.6683,-16.6681,-16.6678,-16.6677,0,-16.442,-16.4498,-16.4785,-16.487,-16.4995,-16.4992,-16.5061,-16.5156,-16.5176,-16.5481,-16.5348,-16.5531,-16.5854,-16.594,-16.6026,-16.6563,-16.645,-16.662,-16.6917,-16.7124,-16.7187,-16.7242,-16.7431,-16.7501,-16.6662,-16.6663,-16.6664,0,-16.3914,-16.3987,-16.4124,-16.4359,-16.4439,-16.4654,-16.4403,-16.4642,-16.4799,-16.4616,-16.4921,-16.4959,-16.5073,-16.5434,-16.5595,-16.548,-16.6172,-16.595,-16.5987,-16.6004,-16.6203,-16.6279,-16.6346,-16.5461,-16.5457,-16.5453,0,0,-16.3696,-16.3907,-16.3969,-16.4303,-16.4363,-16.4363,-16.4475,-16.4429,-16.4538,-16.4582,-16.4628,-16.4735,-16.492,-16.5044,-16.5218,-16.5618,-16.5635,-16.5803,-16.586,-16.5907,-16.5949,-16.616,-16.6235,-16.5438,-16.5438,-16.5437,0,0,-16.3591,-16.3678,-16.3601,-16.3987,-16.4097,-16.4177,-16.438,-16.4286,-16.4441,-16.4408,-16.4337,-16.4362,-16.4699,-16.4742,-16.4538,-16.5133,-16.49,-16.4949,-16.5093,-16.5164,-16.522,-16.5202,-16.4289,0,0,0,0,0,-16.3323,-16.3667,-16.3596,-16.3658,-16.3954,-16.4217,-16.4254,-16.4205,-16.4042,-16.4204,-16.4227,-16.41,-16.4617,-16.4435,-16.4495,-16.4722,-16.5239,-16.5275,-16.5308,-16.5588,-16.5663,-16.5726,0,0,0,0,0,0,-16.3347,-16.3423,-16.3587,-16.3683,-16.3749,-16.4204,-16.3917,-16.3913,-16.4024,-16.3995,-16.41,-16.4103,-16.4064,-16.4401,-16.4456,-16.4673,-16.427,-16.5253,-16.5283,-16.531,-16.5614,-16.5675,-16.5727,0,0,0,0,0,-16.3365,-16.3427,-16.3915,-16.3677,-16.3735,-16.3753,-16.3903,-16.3898,-16.3982,-16.402,-16.4019,-16.3936,-16.4072,-16.4114,-16.4433,-16.4649,-16.4232,-16.4252,-16.5273,-16.5296,-16.5317,-16.5644,0,0,0,0,0,0,-16.3379,-16.3422,-16.3925,-16.3941,-16.3545,-16.3726,-16.3753,-16.3885,-16.3998,-16.4002,-16.385,-16.3827,-16.4082,-16.4112,-16.4146,-16.4644,-16.42,-16.4221,-16.4234,-16.529,-16.5309,-16.5325,0,0,0,0,0,0,-16.3388,-16.3436,-16.3933,-16.3769,-16.3764,-16.3702,-16.3726,-16.3989,-16.4001,-16.3822,-16.3805,-16.3839,-16.4029,-16.4114,-16.4139,-16.4551,-16.4176,-16.4196,-16.421,-16.4219,-16.5306,-16.532,0,0,0,0,0,0,-16.3407,-16.3449,-16.3764,-16.3761,-16.3757,-16.3926,-16.3932,-16.4237,-16.3865,-16.3819,-16.3829,-16.3813,-16.4034,-16.4058,-16.4135,-16.4537,-16.4547,-16.4177,-16.4191,-16.42,-16.4207,0,0,0,0,0,0,0,-16.3423,-16.3162,-16.3835,-16.3755,-16.3751,-16.4084,-16.4088,-16.4092,-16.3861,-16.3847,-16.3833,-16.382,-16.4061,-16.4083,-16.4105,-16.4526,0,0,-16.4175,-16.4185,0,0,0,0,0,0,0,0,-16.3143,-16.3157,-16.3835,-16.3839,-16.3842,-16.4084,-16.4088,-16.4091,-16.3859,-16.3847,-16.3836,-16.3825,-16.4067,-16.4085,-16.4103,0,0,0,0,0,0,0,0,0,0,0,0,0,0,0,-16.3836,-16.3838,0,-16.4085,-16.4088,-16.409,-16.3857,-16.3848,-16.3838,-16.383,-16.4072,-16.4087,-16.4102,0,0,0,0,0,0,0,0,0,0,0,0,0,0,0,0,0,0,0,0,0,0,0,0,0,0,0,0,0,0,0,0,0,0,0,0,0,0,0,0,0,0,0,0,0,0,0,0,0,0,0,0,0,0,0,0,0,0,0,0,0,0,0,0,0,0,0,0,0]}]]]